Location: Newark
(35.2161°N, 26.1013°E)
Time: 21:05:10
(UTC+00:00)

BEESAT 2 - Pass Details

Date: 23 January 2020
Orbit: 493 x 534 km, 64.9° (Epoch: 23 February)

Event Time Altitude Azimuth Distance (km) Brightness Sun altitude
Exits shadow 04:46:17 - 328° (NNW) 2,358 ? -7.4°
Reaches altitude 10° 04:47:42 10° 326° (NNW) 1,788 ? -7.2°
Maximum altitude 04:51:41 71° 243° (WSW) 564 ? -6.4°
Drops below altitude 10° 04:55:37 10° 159° (SSE) 1,763 ? -5.6°
Sets 04:57:47 0° 157° (SSE) 2,642 ? -5.2°
